Voltar ao catálogo

ANIK D1

TELESAT 6

AtivoComunicaçõesGEO
NORAD 13431·PAYLOAD·🇨🇦 Canada

Lançado Aug 26, 1982 de Cape Canaveral Space Force Station

Loading…

TLE

AtualizadoSource: Space-Track

Época: Sep 13, 2026, 20:53 UTC

1 13431U 82082A   26256.87032250  .00000120  00000-0  00000+0 0  9992
2 13431  12.1130 332.3188 0005493 322.2278  52.1235  1.00107263 47499

Acompanhe ANIK D1 em tempo real com AllMySat

Download on the App Store